TimeEST,TemperatureF,Dew PointF,Humidity,Sea Level PressureIn,VisibilityMPH,Wind Direction,Wind SpeedMPH,Gust SpeedMPH,PrecipitationIn,Events,Conditions,WindDirDegrees,DateUTC
12:14 AM,44.2,32.7,64,29.87,7.0,NNE,3.5,-,N/A,Rain,Rain,20,2013-01-13 05:14:00
12:34 AM,42.8,34.9,74,29.85,7.0,North,5.8,-,N/A,Rain,Rain,360,2013-01-13 05:34:00
12:55 AM,41.4,34.3,76,29.83,7.0,North,8.1,-,N/A,Rain,Rain,350,2013-01-13 05:55:00
1:14 AM,40.5,34.0,78,29.82,5.0,NNE,8.1,-,N/A,Rain,Rain,30,2013-01-13 06:14:00
1:34 AM,40.1,34.0,79,29.81,7.0,North,5.8,-,N/A,Rain,Light Rain,10,2013-01-13 06:34:00
1:54 AM,39.4,34.0,81,29.81,7.0,NNE,4.6,-,N/A,Rain,Rain,20,2013-01-13 06:54:00
2:14 AM,39.2,34.7,84,29.82,7.0,North,5.8,-,N/A,Rain,Light Rain,10,2013-01-13 07:14:00
2:35 AM,38.7,34.9,86,29.81,3.0,North,4.6,-,N/A,Rain,Rain,10,2013-01-13 07:35:00
2:54 AM,38.7,35.1,87,29.80,7.0,NNE,8.1,-,N/A,Rain,Light Rain,30,2013-01-13 07:54:00
3:14 AM,38.8,35.6,88,29.82,5.0,North,5.8,-,N/A,Rain,Light Rain,350,2013-01-13 08:14:00
3:35 AM,38.5,35.6,89,29.80,7.0,North,4.6,-,N/A,Rain,Light Rain,360,2013-01-13 08:35:00
3:54 AM,38.3,35.4,89,29.80,5.0,North,5.8,-,N/A,Rain,Rain,350,2013-01-13 08:54:00
4:14 AM,38.3,35.6,90,29.79,4.0,NNE,4.6,-,N/A,Rain,Rain,30,2013-01-13 09:14:00
4:35 AM,37.9,35.2,90,29.79,4.0,North,5.8,-,N/A,Rain,Rain,10,2013-01-13 09:35:00
4:54 AM,37.6,34.9,90,29.80,4.0,NNW,8.1,-,N/A,Rain,Rain,340,2013-01-13 09:54:00
5:15 AM,37.0,34.2,89,29.76,7.0,North,10.4,16.1,N/A,Rain,Light Rain,10,2013-01-13 10:15:00
5:35 AM,37.4,34.7,90,29.81,10.0,NW,12.7,18.4,N/A,Rain,Light Rain,310,2013-01-13 10:35:00
5:54 AM,37.8,34.9,89,29.80,10.0,North,8.1,16.1,N/A,,Overcast,350,2013-01-13 10:54:00
6:15 AM,37.0,34.2,89,29.79,7.0,North,8.1,-,N/A,,Drizzle,360,2013-01-13 11:15:00
6:34 AM,36.9,34.0,89,29.78,10.0,North,6.9,-,N/A,,Overcast,360,2013-01-13 11:34:00
6:55 AM,36.9,34.2,90,29.79,10.0,NNE,5.8,-,N/A,,Overcast,20,2013-01-13 11:55:00
7:15 AM,37.0,34.2,89,29.81,10.0,North,5.8,-,N/A,,Overcast,360,2013-01-13 12:15:00
7:34 AM,37.0,34.2,89,29.82,10.0,NNW,4.6,-,N/A,,Overcast,330,2013-01-13 12:34:00
7:55 AM,37.0,34.0,89,29.82,10.0,North,4.6,-,N/A,,Overcast,10,2013-01-13 12:55:00
8:14 AM,37.2,34.2,89,29.81,10.0,ENE,6.9,-,N/A,,Overcast,60,2013-01-13 13:14:00
8:34 AM,37.4,34.3,89,29.83,10.0,Calm,Calm,-,N/A,,Overcast,0,2013-01-13 13:34:00
8:54 AM,37.6,34.5,89,29.83,7.0,Calm,Calm,-,N/A,,Overcast,0,2013-01-13 13:54:00
9:14 AM,38.1,35.1,89,29.85,7.0,Calm,Calm,-,N/A,,Overcast,0,2013-01-13 14:14:00
9:35 AM,38.8,34.7,85,29.85,5.0,Calm,Calm,-,N/A,,Overcast,0,2013-01-13 14:35:00
9:54 AM,39.0,35.4,87,29.85,7.0,Calm,Calm,-,N/A,,Overcast,0,2013-01-13 14:54:00
10:15 AM,38.7,35.2,87,29.86,4.0,West,4.6,-,N/A,,Overcast,280,2013-01-13 15:15:00
10:34 AM,38.7,35.6,89,29.88,1.8,West,6.9,-,N/A,,Light Drizzle,260,2013-01-13 15:34:00
10:54 AM,38.3,35.6,90,29.88,1.2,West,5.8,-,N/A,,Drizzle,270,2013-01-13 15:54:00
11:15 AM,38.5,36.0,91,29.88,1.8,West,6.9,-,N/A,,Overcast,270,2013-01-13 16:15:00
11:34 AM,39.2,36.5,90,29.88,1.5,West,8.1,-,N/A,,Overcast,280,2013-01-13 16:34:00
11:54 AM,39.0,36.1,89,29.87,1.8,WNW,5.8,-,N/A,,Overcast,300,2013-01-13 16:54:00
12:15 PM,39.2,36.3,89,29.85,1.8,NW,9.2,-,N/A,,Overcast,320,2013-01-13 17:15:00
12:34 PM,38.3,35.6,90,29.83,2.0,Calm,Calm,-,N/A,,Overcast,0,2013-01-13 17:34:00
12:54 PM,38.7,35.8,89,29.88,4.0,West,10.4,-,N/A,,Overcast,280,2013-01-13 17:54:00
1:15 PM,38.8,36.0,89,29.88,4.0,WNW,9.2,-,N/A,,Overcast,300,2013-01-13 18:15:00
1:55 PM,38.3,35.4,89,29.85,1.8,NW,9.2,-,N/A,,Light Drizzle,310,2013-01-13 18:55:00
2:15 PM,37.9,34.7,88,29.83,10.0,NW,4.6,-,N/A,,Overcast,310,2013-01-13 19:15:00
2:34 PM,38.3,34.7,87,29.83,10.0,North,3.5,-,N/A,,Overcast,350,2013-01-13 19:34:00
2:55 PM,38.1,34.9,88,29.85,10.0,NW,8.1,-,N/A,,Overcast,320,2013-01-13 19:55:00
3:14 PM,37.8,34.5,88,29.87,10.0,NW,9.2,-,N/A,,Light Drizzle,310,2013-01-13 20:14:00
3:34 PM,37.0,33.8,88,29.91,1.5,NW,15.0,-,N/A,,Drizzle,320,2013-01-13 20:34:00
3:55 PM,36.9,33.8,89,29.91,1.5,NW,11.5,-,N/A,,Drizzle,320,2013-01-13 20:55:00
4:14 PM,36.5,33.4,89,29.93,2.5,WNW,8.1,-,N/A,Rain,Rain,300,2013-01-13 21:14:00
4:34 PM,36.1,33.1,89,29.91,2.5,NW,8.1,-,N/A,Rain,Light Rain,310,2013-01-13 21:34:00
4:55 PM,36.1,33.1,89,29.90,5.0,NNW,3.5,-,N/A,Rain,Rain,330,2013-01-13 21:55:00
5:14 PM,35.8,32.5,88,29.90,5.0,Calm,Calm,-,N/A,Rain,Light Rain,0,2013-01-13 22:14:00
5:34 PM,35.1,32.2,89,29.91,2.5,Calm,Calm,-,N/A,Rain,Rain,0,2013-01-13 22:34:00
5:55 PM,35.2,32.5,90,29.90,5.0,West,3.5,-,N/A,Rain,Rain,270,2013-01-13 22:55:00
6:14 PM,35.2,32.5,90,29.89,5.0,West,5.8,-,N/A,Rain,Light Rain,270,2013-01-13 23:14:00
6:34 PM,34.9,32.4,91,29.89,5.0,West,5.8,-,N/A,Rain,Rain,280,2013-01-13 23:34:00
6:55 PM,34.3,32.0,91,29.91,3.0,WSW,4.6,-,N/A,Rain,Rain,240,2013-01-13 23:55:00
7:14 PM,34.0,32.0,92,29.92,3.0,WSW,5.8,-,N/A,Snow,Light Snow,250,2013-01-14 00:14:00
7:35 PM,33.8,32.0,93,29.93,1.5,West,6.9,-,N/A,Snow,Light Snow,260,2013-01-14 00:35:00
7:55 PM,33.6,32.0,94,29.93,1.2,West,10.4,-,N/A,Snow,Light Snow,270,2013-01-14 00:55:00
8:14 PM,33.3,32.0,95,29.93,2.0,West,6.9,-,N/A,Snow,Light Snow,260,2013-01-14 01:14:00
8:35 PM,33.1,31.8,95,29.95,2.5,West,13.8,-,N/A,Snow,Light Snow,280,2013-01-14 01:35:00
8:55 PM,32.7,31.1,94,29.96,1.5,West,11.5,-,N/A,Snow,Light Snow,280,2013-01-14 01:55:00
9:14 PM,32.0,30.2,93,29.97,1.0,West,12.7,-,N/A,Snow,Light Snow,270,2013-01-14 02:14:00
9:35 PM,32.0,29.7,91,29.96,3.0,West,10.4,19.6,N/A,Snow,Light Snow,280,2013-01-14 02:35:00
9:54 PM,31.6,29.3,91,29.97,7.0,West,11.5,-,N/A,,Overcast,270,2013-01-14 02:54:00
10:14 PM,30.9,28.2,90,29.98,7.0,West,19.6,24.2,N/A,,Overcast,270,2013-01-14 03:14:00
10:35 PM,30.2,27.5,90,29.98,7.0,West,13.8,19.6,N/A,,Overcast,280,2013-01-14 03:35:00
10:54 PM,29.7,26.8,89,29.99,7.0,West,15.0,21.9,N/A,,Overcast,270,2013-01-14 03:54:00
11:14 PM,29.1,25.3,86,30.00,10.0,West,12.7,21.9,N/A,,Overcast,270,2013-01-14 04:14:00
11:35 PM,28.9,24.8,84,30.02,10.0,West,16.1,20.7,N/A,,Overcast,270,2013-01-14 04:35:00
11:54 PM,28.4,23.9,83,30.03,10.0,West,17.3,24.2,N/A,,Overcast,280,2013-01-14 04:54:00